Theta_e
320 321 320 318 317 317 316 316 315 315 315 315 315 315 316 316 316 316 316 315 315 316 316 316 317 318 319 320 321 323 324 324 324 325 325 326 326 326 326 326 326 326 326 326 326 326 326 327 327 326 326 326 325 325 325 325 325 325 325 325 325 325
320 320 319 318 317 316 315 314 314 314 314 314 314 314 314 315 315 315 315 315 315 314 315 315 316 317 318 319 321 322 323 323 324 324 325 325 325 325 325 326 325 326 325 325 325 325 326 326 326 326 326 325 325 325 325 325 325 325 325 325 325 324
320 319 318 316 315 314 313 313 313 313 313 313 313 314 314 314 314 314 314 314 314 313 313 314 314 315 316 318 320 321 322 322 323 323 324 324 325 325 325 325 325 325 325 325 325 325 325 326 325 325 325 325 324 324 324 324 324 324 324 325 324 324
318 318 317 315 315 314 313 313 312 312 312 313 313 313 314 314 314 314 314 313 313 312 312 313 313 314 315 316 318 319 320 321 322 323 323 324 324 324 324 325 325 325 325 325 325 325 325 325 325 325 324 324 324 324 324 324 324 324 324 324 324 324
318 317 316 315 315 314 313 312 312 312 312 312 313 313 313 314 314 314 313 312 312 312 312 312 312 313 314 315 316 317 318 319 321 322 323 323 323 324 324 324 325 325 325 325 325 325 325 325 325 324 324 323 323 323 323 323 323 323 323 323 323 323
318 317 316 316 315 314 313 312 312 312 311 311 312 312 313 314 314 313 312 311 311 311 311 311 312 312 313 314 315 316 317 318 319 321 322 323 323 323 324 324 324 325 325 325 324 324 324 324 324 323 323 322 322 323 323 323 323 323 323 323 323 323
317 316 316 316 315 315 314 313 313 312 311 311 312 312 313 314 314 313 312 311 311 311 311 311 311 312 313 313 314 315 316 317 319 320 321 322 323 323 323 323 323 324 324 324 324 323 323 323 322 322 322 322 322 322 322 322 322 322 322 322 322 322
315 314 315 315 315 315 314 314 313 312 311 311 312 313 313 314 314 313 311 311 311 311 311 311 312 313 314 314 314 315 316 317 318 319 320 321 322 322 322 321 322 323 323 323 323 322 322 321 321 321 321 321 321 321 321 321 321 322 322 322 322 322
314 314 314 315 315 314 314 313 312 311 311 311 311 312 313 313 314 313 311 311 311 311 311 312 312 314 314 314 314 315 316 317 318 318 319 320 320 321 320 320 321 322 322 322 321 320 320 320 320 320 320 320 321 320 320 320 320 321 321 321 321 321
314 315 315 316 315 314 313 312 312 311 310 311 311 311 312 313 313 312 311 311 311 311 312 313 313 314 314 314 314 315 316 316 317 317 318 318 319 319 319 319 319 319 318 318 318 318 318 318 318 318 319 320 320 320 320 320 320 320 320 320 320 321
316 316 316 316 316 315 314 312 312 311 310 311 311 311 312 312 312 311 311 310 310 311 312 313 312 313 313 312 313 315 315 316 316 316 317 317 317 317 317 316 316 315 315 315 316 317 317 318 318 319 320 320 320 320 320 319 319 319 319 320 320 320
316 317 317 317 316 315 314 313 313 312 311 310 310 311 311 311 311 311 310 309 310 311 311 311 311 311 311 312 313 314 315 315 315 314 314 314 314 314 314 314 314 314 315 316 318 319 319 318 319 319 320 320 321 321 320 320 320 320 320 320 320 319
315 316 316 317 317 316 315 315 314 313 311 311 311 310 310 311 311 310 309 310 311 311 309 310 310 310 310 311 312 313 312 312 311 311 312 312 313 313 313 313 313 314 316 318 318 319 319 319 319 320 321 321 321 321 321 321 321 320 320 320 319 319
314 314 315 316 316 316 316 315 314 313 312 312 311 310 309 310 311 311 311 312 312 310 308 308 308 309 309 310 310 311 310 310 310 311 311 312 312 312 312 312 313 315 316 317 318 319 319 320 320 320 321 322 321 321 321 321 321 321 321 320 319 318
314 314 315 315 316 316 315 315 314 314 313 312 311 309 309 309 310 311 312 312 311 309 308 307 307 307 308 308 309 309 309 310 311 311 312 312 312 312 313 313 314 315 317 318 318 319 319 319 320 320 321 321 321 321 320 320 320 320 319 318 316 315
313 314 315 315 315 315 314 314 313 313 312 311 310 309 308 308 309 309 310 310 309 308 307 307 306 306 307 307 308 308 309 310 311 312 313 313 313 313 314 314 315 316 317 318 318 318 319 319 319 319 319 319 319 319 318 318 317 317 316 316 315 314
314 314 314 314 314 314 314 313 313 312 311 310 309 309 308 308 308 308 308 308 307 307 306 306 305 305 306 306 306 307 309 310 310 311 311 313 314 314 314 315 315 315 316 317 317 317 317 317 317 317 317 317 317 317 317 316 315 314 313 313 312 311
313 313 314 314 314 314 313 313 313 312 311 310 309 309 308 308 307 308 308 307 307 307 306 305 304 305 305 305 305 307 308 309 309 310 312 314 314 314 314 314 314 314 315 315 315 315 315 315 316 315 315 314 314 313 312 311 310 309 307 307 305 304
313 313 313 313 313 313 313 313 313 312 311 310 309 309 308 307 307 308 308 308 307 307 306 305 304 304 304 304 305 306 307 309 310 311 312 313 312 312 311 311 311 311 311 311 310 310 310 310 311 310 308 307 306 305 305 304 303 302 302 301 301 300
312 312 312 312 313 313 313 313 313 312 310 309 309 308 307 306 306 307 308 307 307 307 306 305 304 304 304 304 304 306 307 308 309 310 311 310 310 308 307 307 306 306 305 305 304 304 305 305 304 304 302 301 301 301 301 300 300 300 299 299 298 298
311 311 311 311 312 312 312 312 312 311 309 308 309 308 307 306 307 307 307 307 307 307 306 305 304 303 303 304 304 306 307 307 308 308 308 307 306 305 303 302 302 301 300 301 301 301 301 301 301 300 300 299 299 299 299 300 299 298 297 296 296 296
308 309 309 309 310 310 310 310 309 309 308 308 308 308 308 307 308 308 307 307 307 307 305 304 303 303 303 304 304 305 305 305 304 304 303 303 302 301 300 299 299 299 298 298 298 298 299 299 299 299 298 298 298 298 299 299 299 298 297 296 295 295
306 307 308 308 308 308 308 308 307 307 307 307 308 308 308 308 308 307 307 306 306 306 304 303 303 303 302 303 303 303 302 302 302 301 301 300 299 299 298 298 297 297 296 296 296 297 297 298 298 298 298 298 297 297 298 298 299 298 297 296 296 295
304 305 305 305 306 306 305 305 305 305 306 306 307 307 307 307 307 306 306 305 305 304 303 303 302 301 301 300 300 300 299 299 300 300 299 298 298 297 297 296 295 295 294 294 295 295 296 296 297 297 297 297 297 297 297 297 298 298 298 297 295 295
299 301 302 303 302 301 301 301 302 303 304 305 305 305 305 305 305 305 304 304 304 303 302 302 301 300 299 299 298 298 297 297 297 297 297 297 296 295 294 293 293 293 292 292 293 293 294 294 295 295 295 295 295 296 296 296 297 297 297 296 294 293
295 298 299 299 296 295 296 297 300 301 302 302 302 302 302 302 303 303 303 303 302 302 301 300 299 298 298 297 297 296 295 295 295 295 295 295 294 293 292 292 292 292 292 292 292 291 292 293 293 293 294 294 294 295 295 295 295 295 295 294 293 292
293 294 295 292 289 289 290 292 294 295 295 296 297 297 299 300 301 301 301 301 300 299 298 298 297 296 296 295 295 294 294 293 293 293 293 293 293 292 292 292 292 293 293 292 291 290 290 291 292 292 292 293 293 293 293 293 293 292 292 291 291 290
288 288 288 287 284 284 285 286 287 288 289 290 292 294 296 298 299 299 299 298 298 297 296 295 295 294 294 294 293 293 292 292 292 292 292 292 292 292 292 292 292 293 293 292 291 290 290 290 291 291 291 291 291 291 291 291 291 290 289 289 289 289
284 284 284 283 282 282 282 283 283 284 286 289 291 292 294 296 296 297 296 295 295 294 294 293 293 292 292 292 292 292 292 292 292 292 292 292 292 292 292 292 292 292 292 292 291 289 289 289 290 289 289 289 289 289 289 289 289 289 288 288 288 288
281 281 281 280 280 280 280 280 281 282 285 288 291 292 293 294 294 294 294 293 293 292 292 292 291 291 291 291 291 291 291 291 291 291 291 291 291 292 291 291 291 291 291 291 290 289 289 289 289 289 289 289 288 288 288 288 288 288 287 287 288 288
279 278 279 279 278 278 278 278 279 280 283 286 289 292 292 293 293 293 292 292 292 291 291 290 290 290 290 289 289 289 288 289 289 289 288 288 289 290 290 290 290 290 290 290 289 289 289 289 288 289 289 288 288 288 288 287 287 287 287 287 287 287
277 277 277 277 276 276 276 276 277 278 280 283 287 291 292 292 292 291 291 291 290 290 290 289 289 289 288 288 287 285 285 286 287 287 287 287 287 288 289 289 289 289 289 289 288 288 288 288 288 288 288 287 287 287 287 287 287 286 286 286 286 286
276 276 275 275 275 275 275 274 275 276 278 281 285 288 290 291 291 290 290 289 289 289 289 288 288 288 287 286 286 285 284 284 284 285 285 286 286 287 287 288 287 287 288 288 287 287 287 287 287 287 286 286 286 286 286 286 285 285 285 285 285 286
275 275 274 274 273 273 273 273 273 274 276 279 282 285 287 288 288 288 287 287 287 287 287 286 286 286 286 285 285 285 284 283 283 283 283 284 285 285 286 286 286 286 287 287 286 286 285 285 285 285 285 284 284 284 284 284 284 284 285 285 285 286
275 274 274 273 273 272 272 272 272 273 274 276 278 281 283 283 284 284 284 284 284 284 284 284 284 284 284 283 283 283 283 283 282 282 281 282 283 283 283 284 284 284 285 285 285 284 284 283 283 283 283 283 283 283 283 283 284 284 285 285 285 286
273 273 272 272 272 271 271 270 271 272 273 274 276 277 279 280 280 281 281 282 282 282 282 282 282 281 282 282 282 282 282 281 281 281 281 281 281 281 281 281 281 282 282 282 282 282 282 282 282 282 282 282 282 283 283 284 284 284 284 285 285 286
273 272 272 271 271 270 270 269 269 270 272 274 275 275 276 277 277 278 278 279 280 280 279 280 280 280 280 280 280 280 280 280 280 281 281 281 281 280 279 279 279 279 280 280 280 280 281 281 281 281 282 282 282 283 283 283 283 283 283 283 283 284
272 271 271 270 270 270 269 269 269 270 271 272 273 274 275 275 276 276 276 276 277 277 277 278 278 278 279 279 279 279 279 279 279 279 279 279 279 279 278 277 277 277 278 279 279 279 279 280 281 281 281 281 281 281 282 281 281 282 282 282 282 282
Wind_Speed
12 11 13 17 23 25 24 25 25 25 27 28 30 31 33 35 35 35 37 38 40 42 42 43 44 45 46 47 47 46 43 42 42 42 41 40 39 37 37 35 33 33 33 33 33 33 26 20 20 20 20 21 22 21 22 21 20 21 21 22 24 26
12 12 14 16 18 21 21 22 23 25 27 27 28 30 32 34 35 36 37 37 39 41 41 41 42 43 45 45 45 43 43 44 43 42 41 40 39 37 36 35 33 33 33 33 33 33 28 21 20 20 20 21 22 22 22 21 20 21 22 23 24 24
9 11 15 16 17 19 19 20 22 23 25 26 27 29 31 33 35 37 38 38 37 37 37 39 41 42 42 42 42 42 43 44 43 43 41 39 37 37 35 34 33 33 32 32 32 31 27 22 21 20 20 21 22 22 22 21 21 22 22 23 24 24
6 9 13 15 16 17 17 18 19 22 24 25 26 27 30 33 35 38 39 37 37 36 37 39 40 40 39 39 39 40 42 43 43 42 39 37 36 35 34 33 33 32 31 31 31 27 22 21 22 20 19 20 22 23 24 23 23 24 24 23 24 26
6 8 11 12 14 15 16 17 20 23 25 24 25 26 30 32 35 38 37 35 37 38 39 39 40 40 39 38 38 40 42 42 41 39 37 36 35 33 33 33 31 31 29 27 26 23 21 22 22 20 20 22 24 24 25 24 24 24 25 25 26 26
5 6 8 9 12 14 19 22 22 23 23 23 25 27 30 32 35 37 36 34 36 37 37 38 38 38 37 37 39 40 41 40 38 36 35 34 33 32 31 28 26 26 25 21 20 21 21 21 21 21 22 25 26 27 26 26 27 27 28 29 29 28
7 6 6 8 11 13 18 22 22 21 21 22 25 28 30 31 34 36 35 34 34 34 35 36 36 36 36 37 40 40 40 38 35 35 33 32 32 29 24 22 23 23 22 21 21 21 21 22 23 24 25 26 28 28 28 28 28 29 30 30 30 30
8 8 8 9 12 13 16 19 20 19 20 22 23 25 27 29 32 34 33 32 32 33 35 36 36 36 37 39 40 39 37 35 34 34 33 32 31 26 19 21 26 27 25 24 22 21 22 22 23 25 25 27 28 29 29 30 30 31 31 31 31 30
10 10 10 10 12 17 19 20 20 19 20 21 21 22 25 27 30 32 31 30 31 32 35 36 37 37 38 38 38 36 34 33 32 32 32 32 32 28 25 26 29 30 30 29 27 25 24 22 22 23 23 26 28 29 30 30 30 31 30 30 30 29
11 10 10 9 13 19 22 20 19 19 21 23 23 22 25 27 28 30 31 30 31 33 36 37 36 35 34 34 33 31 31 31 30 30 30 31 31 31 31 30 29 29 30 30 30 29 27 24 23 24 25 26 28 29 30 30 30 30 29 29 28 28
12 10 10 11 13 17 20 20 20 20 21 25 25 24 25 26 27 30 31 30 32 36 38 35 33 32 31 30 29 29 29 29 29 29 30 31 31 31 30 29 28 28 29 30 30 29 29 28 28 28 27 28 28 28 29 29 29 28 28 28 27 27
14 13 13 11 10 13 15 17 20 20 21 25 27 27 26 25 27 30 30 31 35 38 35 32 30 30 28 28 28 29 29 29 29 29 30 31 30 30 29 28 28 28 29 29 29 28 28 28 28 27 26 26 26 26 26 27 27 27 27 27 26 25
17 17 16 13 13 16 17 19 23 22 22 26 29 28 25 24 27 30 30 33 37 36 32 30 30 29 28 29 29 29 30 29 29 30 30 30 29 29 28 28 28 28 27 26 26 27 27 26 26 25 24 24 24 24 25 25 25 25 25 26 25 25
19 20 19 18 21 24 24 26 27 24 25 29 29 26 23 23 27 30 32 35 38 35 31 31 30 29 30 30 30 31 30 29 28 29 29 29 29 28 27 27 27 26 25 24 24 25 26 26 25 24 24 24 24 24 25 25 25 25 25 25 25 24
19 19 19 20 24 28 29 28 27 26 27 28 24 21 21 23 27 30 33 37 37 35 33 31 29 29 31 31 31 31 29 29 29 30 30 29 27 26 25 26 26 25 25 25 25 26 26 26 25 25 24 24 24 24 24 24 24 24 24 24 23 22
19 20 23 25 27 30 32 31 30 30 28 24 21 20 22 24 26 30 33 36 36 35 33 30 29 31 32 31 30 29 29 30 31 31 29 28 27 26 26 26 26 26 26 26 26 26 26 25 25 24 24 24 24 24 23 23 22 22 22 22 21 21
18 19 24 28 30 30 31 30 30 30 28 25 23 23 24 25 27 29 32 34 34 32 30 30 30 32 32 31 30 29 30 31 31 30 29 29 28 28 28 27 27 27 27 27 26 26 26 25 24 23 23 23 23 23 23 23 22 22 22 21 21 22
20 22 25 29 31 30 29 29 30 28 27 26 25 25 26 26 27 30 32 32 32 30 29 30 31 32 31 30 29 30 32 32 31 31 30 29 28 28 27 27 28 28 28 27 27 26 26 25 24 23 23 23 23 24 24 24 23 23 22 21 21 21
26 28 29 29 30 30 29 31 30 26 23 25 25 26 26 25 27 32 33 33 33 31 30 31 32 33 32 31 32 33 34 34 33 32 31 30 29 28 28 28 28 28 28 28 27 27 26 25 24 23 23 24 24 24 24 24 23 22 21 20 20 19
26 29 31 28 27 30 31 32 31 23 19 23 26 25 24 24 29 34 36 35 34 32 31 33 34 35 35 34 36 38 37 36 35 34 33 32 31 30 30 29 28 27 27 27 27 27 26 25 24 23 23 23 23 23 23 23 23 21 20 19 19 18
21 25 27 23 24 32 34 31 28 20 16 23 27 23 21 26 33 38 38 35 33 32 32 34 35 36 37 38 40 41 40 38 37 35 34 32 32 31 29 28 27 26 26 26 26 25 24 23 22 22 22 22 21 22 22 22 23 21 19 18 18 16
16 16 18 19 25 34 32 27 22 17 19 26 24 19 22 31 37 38 34 31 31 31 32 33 35 37 39 41 41 40 39 37 35 34 33 32 31 30 29 28 27 27 26 25 24 23 22 22 22 22 21 21 21 21 21 22 23 23 21 19 19 18
15 13 16 21 27 30 27 21 17 17 22 23 18 20 28 33 31 28 26 26 28 30 31 33 35 37 38 38 37 36 35 35 35 35 35 33 31 30 29 28 27 26 24 23 22 21 21 21 21 22 21 20 20 19 20 21 22 23 22 21 20 18
15 16 18 20 21 23 23 20 16 17 19 18 18 27 32 27 23 23 23 24 26 28 30 33 34 34 33 31 32 34 34 35 35 36 36 35 32 31 30 28 27 25 23 21 20 20 20 20 20 21 20 19 19 19 18 19 19 19 19 20 19 18
14 16 17 15 15 16 18 16 15 16 15 15 21 28 27 23 22 23 21 22 25 27 29 31 31 31 29 29 31 33 33 34 34 34 35 34 32 31 30 28 27 26 23 21 19 19 20 20 19 20 19 19 19 19 18 18 18 17 18 18 18 17
15 16 14 12 13 15 14 12 13 14 13 15 20 23 22 21 22 20 20 22 24 25 26 27 28 29 28 28 29 29 30 32 33 32 33 33 33 32 28 25 27 26 21 18 18 18 19 19 18 17 17 17 18 18 17 18 18 18 17 17 16 14
14 13 11 12 17 18 16 14 12 11 12 16 21 22 21 20 19 17 19 21 21 22 22 22 24 26 25 26 26 25 27 30 29 30 31 31 33 33 27 23 26 25 19 16 17 19 20 20 19 19 17 17 17 16 16 16 16 15 13 13 13 12
13 13 12 15 19 19 18 18 15 12 14 19 21 20 19 18 17 17 17 17 16 17 18 18 19 20 22 23 23 23 25 26 25 25 26 25 27 29 26 22 22 21 17 15 17 21 23 22 22 21 19 17 17 15 14 14 13 11 10 9 10 10
11 12 12 14 17 18 19 20 19 17 17 19 18 17 16 15 15 14 13 12 12 12 13 14 15 15 17 19 20 20 22 21 19 17 16 14 16 18 19 18 18 16 14 13 16 21 24 23 22 21 18 17 16 14 13 13 12 12 10 9 9 9
11 12 12 13 16 18 18 20 21 21 20 19 16 14 12 11 9 8 7 7 8 8 9 9 10 9 9 12 14 14 14 15 15 13 9 6 7 10 12 15 16 15 16 19 21 23 22 19 20 20 17 16 16 15 14 14 13 13 12 10 10 10
13 13 13 13 15 17 17 19 22 23 22 20 17 12 8 4 2 1 3 5 6 8 10 10 9 9 9 10 12 13 12 12 13 12 9 5 4 8 13 16 16 15 19 22 22 19 14 11 12 15 14 14 15 14 14 14 13 13 12 10 10 10
15 15 15 15 16 17 17 20 23 26 26 23 18 12 5 3 5 6 6 6 6 8 11 12 13 14 13 12 12 14 17 17 16 14 12 10 8 7 10 14 14 14 17 19 16 12 9 9 9 9 9 9 9 9 9 10 11 11 10 9 9 10
15 16 17 17 18 18 18 20 26 30 30 26 20 14 9 9 9 8 8 8 7 8 11 14 15 16 16 15 15 16 18 19 20 19 17 14 13 12 11 12 12 12 14 16 15 12 10 10 9 8 7 6 6 5 5 6 7 7 8 8 9 9
15 15 16 16 18 19 18 22 28 31 30 27 23 18 15 15 13 11 10 10 10 11 13 13 14 15 16 16 17 18 18 16 15 16 18 18 16 15 14 14 13 13 12 12 13 13 12 11 9 8 6 5 4 4 4 6 6 6 6 7 8 8
13 14 14 15 18 18 19 24 30 32 30 28 25 21 21 21 19 17 15 13 13 15 15 14 15 16 17 16 16 16 16 15 12 10 12 15 17 17 16 15 14 13 12 11 10 11 11 9 7 5 4 2 2 3 4 5 5 5 5 7 8 7
13 13 14 16 17 17 19 25 30 30 28 27 24 22 22 22 22 22 19 17 17 17 16 16 16 16 16 16 16 15 15 14 14 12 11 11 11 12 13 14 13 11 10 10 8 7 7 6 5 4 3 2 2 1 1 3 3 3 3 4 5 6
13 14 15 16 16 16 18 23 28 28 25 24 23 22 22 22 22 22 21 19 18 17 15 15 15 14 13 13 13 12 12 11 12 12 12 11 9 8 9 10 11 10 9 9 8 7 6 6 6 7 7 6 5 4 3 4 2 0 1 1 2 3
13 14 15 15 16 15 16 21 26 27 24 22 22 22 22 22 22 21 20 18 17 15 14 13 13 13 12 12 11 11 11 11 10 10 10 10 11 10 9 9 10 10 9 9 8 7 6 7 8 8 8 7 6 5 6 5 2 1 2 3 3 3
Wind_Direction
250 248 245 247 251 254 256 258 258 256 255 255 255 256 260 262 261 258 255 252 250 249 247 245 243 242 242 242 242 242 241 241 242 243 243 243 243 242 243 242 240 239 238 237 237 236 233 229 229 228 226 226 225 226 228 229 228 228 228 229 231 234
251 251 254 256 257 259 259 258 258 256 256 256 257 259 262 263 263 261 257 254 252 251 248 246 245 244 243 242 242 241 241 242 243 243 243 243 242 242 242 240 238 237 237 236 235 235 232 228 229 228 225 226 226 226 227 226 225 225 227 229 231 232
257 258 263 266 265 264 261 258 258 258 258 257 257 259 261 262 264 262 258 255 254 251 249 248 246 245 244 243 243 242 242 243 243 242 242 242 241 241 240 238 237 237 236 235 234 234 230 227 228 227 224 225 226 226 227 227 226 227 228 230 231 230
263 269 270 270 268 266 264 261 260 260 260 259 258 259 260 263 265 263 259 256 255 254 253 250 247 245 244 243 243 242 242 242 242 241 240 239 240 240 238 237 237 236 234 234 234 231 226 226 228 227 223 223 225 226 228 228 228 230 230 230 230 231
250 265 270 271 272 274 274 271 266 263 262 262 262 261 262 265 267 266 262 259 258 257 254 251 247 246 244 242 242 242 241 240 240 240 239 238 239 238 237 237 237 236 233 232 230 226 225 226 227 226 224 223 225 226 227 228 229 229 229 228 229 231
264 265 270 276 280 280 279 277 272 268 267 266 266 265 267 270 271 269 265 262 260 258 253 249 247 246 243 241 240 240 240 239 238 239 238 237 237 237 237 235 233 233 230 226 224 223 224 225 223 223 224 225 227 228 227 229 229 228 229 230 231 232
296 284 280 279 276 274 276 278 277 274 272 269 266 266 269 273 273 272 269 264 261 257 252 248 246 244 241 238 238 238 238 237 236 236 236 234 235 235 233 230 228 227 224 221 222 222 222 223 222 223 225 226 229 230 229 229 229 229 230 231 232 232
288 285 281 273 270 272 277 280 280 277 274 269 264 265 271 275 275 272 270 266 263 259 254 249 244 241 239 237 236 235 235 234 233 234 233 233 233 229 223 224 227 226 223 222 223 222 222 223 223 224 226 227 229 229 228 228 228 229 229 230 231 232
283 280 279 276 277 280 280 280 278 277 275 270 267 271 277 278 275 272 270 268 264 260 257 251 245 241 238 236 235 233 232 233 233 234 234 233 231 226 224 227 230 229 227 226 225 223 222 221 221 222 222 224 226 226 225 224 226 227 227 229 230 231
282 278 276 277 277 279 280 279 278 277 276 275 276 279 283 282 276 271 270 267 263 260 257 253 249 245 241 237 235 233 233 234 234 234 233 232 229 227 228 230 231 230 228 228 228 227 224 221 221 221 220 222 224 223 223 223 223 224 226 228 230 231
283 279 276 276 276 279 281 280 279 276 273 276 279 280 282 281 274 269 267 263 260 259 258 255 251 248 245 241 237 236 235 234 233 232 230 230 228 228 229 229 229 228 226 226 227 227 226 225 225 225 223 222 222 222 223 224 224 224 225 226 229 232
276 274 273 271 268 273 275 274 276 275 274 278 280 279 280 276 269 266 263 260 261 262 259 255 252 249 246 243 240 239 236 234 232 230 228 227 226 224 224 224 224 225 225 225 225 224 224 225 226 226 224 223 222 222 222 224 225 225 226 226 226 227
270 271 273 271 269 271 272 275 280 282 281 280 278 275 274 270 266 265 262 262 266 266 260 254 250 248 246 244 241 239 236 233 230 227 225 224 222 220 220 220 221 222 224 224 223 223 222 222 223 223 222 221 220 219 220 221 222 223 224 224 223 221
267 266 267 270 272 273 274 278 283 282 277 274 274 272 268 263 262 262 263 266 268 266 261 254 249 246 244 241 238 235 233 229 225 222 220 219 218 216 215 217 218 220 221 221 221 221 221 220 220 219 218 216 214 215 217 217 218 220 221 222 220 218
264 262 262 265 268 271 273 274 275 274 271 271 272 269 262 257 257 257 258 262 263 261 259 255 249 245 242 237 233 230 225 221 219 217 215 214 212 211 210 212 214 215 216 215 215 217 217 217 217 216 214 212 211 211 213 215 216 216 217 218 216 213
261 262 263 263 264 267 270 270 269 270 270 270 268 264 258 254 252 250 251 254 254 253 252 251 247 244 241 235 228 222 217 216 214 212 210 207 205 204 204 206 208 209 210 210 211 212 213 213 213 212 211 210 210 210 211 212 212 212 213 214 214 215
261 264 265 264 264 265 266 267 266 267 266 264 261 259 256 251 247 246 247 249 249 247 246 244 242 240 237 230 223 217 214 212 210 207 204 202 201 201 202 203 204 205 206 207 208 209 210 211 211 210 212 212 212 212 213 213 213 213 215 216 218 221
263 264 264 264 264 263 263 263 263 262 261 260 258 256 253 248 245 247 249 249 249 247 244 241 237 234 230 224 218 215 212 210 208 206 203 201 201 202 203 204 204 204 205 206 207 207 208 210 211 212 215 218 217 215 213 212 211 211 212 213 214 214
265 267 265 264 263 263 262 263 265 264 260 259 257 255 252 244 242 248 250 248 248 247 244 240 235 230 224 218 213 212 210 208 206 204 201 198 197 199 202 203 203 204 205 205 205 205 205 207 209 211 213 216 216 212 208 204 202 201 202 202 202 202
261 264 265 262 261 262 263 266 270 271 264 260 259 256 250 244 244 248 249 247 246 246 244 241 234 227 220 214 211 210 207 205 204 203 200 197 196 198 200 201 200 201 203 204 204 203 203 203 204 204 207 210 210 208 204 199 194 191 191 191 191 191
270 270 272 270 266 266 266 270 275 276 265 262 262 257 248 245 249 252 251 250 249 248 245 240 233 226 219 214 213 211 206 204 202 201 198 197 196 197 197 197 196 195 197 200 201 200 199 198 197 198 200 204 205 205 203 197 190 185 183 182 180 180
286 279 275 272 271 272 274 278 284 280 266 265 265 258 249 251 256 259 258 256 253 250 245 238 231 226 221 217 214 210 205 202 200 197 194 193 193 194 192 191 191 190 190 193 194 193 193 194 193 193 196 199 200 201 201 197 192 186 181 176 174 172
288 279 271 273 279 282 287 292 290 278 271 271 268 260 260 262 265 267 265 260 253 247 242 237 232 226 222 218 213 206 202 200 198 194 191 188 189 189 186 185 185 184 183 184 186 187 189 191 192 191 192 194 194 194 197 198 197 193 184 175 170 167
296 289 284 287 291 294 296 295 284 273 274 273 267 269 273 277 278 274 268 259 250 244 240 237 231 224 219 215 210 203 199 198 196 192 189 185 184 183 181 180 179 175 171 172 177 180 182 186 189 188 186 187 186 185 190 196 199 196 186 174 166 164
303 296 294 301 311 313 311 299 277 270 272 268 272 280 285 285 281 275 265 255 247 241 237 233 227 220 215 212 206 201 197 194 190 188 186 182 177 174 173 173 171 165 158 158 163 169 173 175 180 182 179 179 180 180 183 186 186 184 180 174 167 166
304 303 305 324 346 349 344 324 291 283 283 284 292 299 297 288 281 272 259 251 244 236 231 226 220 215 213 209 203 198 194 189 185 184 183 178 173 169 168 169 167 160 153 150 152 158 165 167 169 172 174 176 176 175 175 175 174 174 176 176 175 175
319 327 336 356 5 7 7 358 335 315 313 317 317 314 304 292 282 266 253 245 238 231 227 221 213 210 208 203 198 195 190 185 182 181 180 177 174 171 167 166 166 161 153 148 148 151 157 161 161 162 164 167 169 168 169 170 170 173 177 177 176 178
344 353 356 358 1 2 4 5 359 343 334 335 333 325 310 293 274 258 247 238 231 227 219 211 206 204 199 194 193 191 188 183 181 181 179 177 177 174 168 163 162 159 151 147 146 149 152 155 156 155 157 160 162 163 167 170 170 172 176 176 172 171
358 359 358 356 357 355 356 360 1 354 347 345 342 334 320 295 270 256 243 228 218 209 202 199 195 190 187 185 184 184 182 180 181 182 180 179 178 174 167 162 159 154 148 144 145 148 151 153 154 154 156 160 161 162 168 171 170 172 176 176 173 172
2 1 1 358 354 351 350 355 359 357 355 355 352 345 330 304 275 255 229 203 183 169 169 173 170 165 166 169 167 163 165 172 175 172 170 184 194 184 171 162 158 156 154 152 150 150 151 154 159 162 164 167 168 169 172 173 173 174 178 179 176 170
7 7 7 2 358 355 353 355 358 359 360 1 1 358 344 320 286 173 158 151 138 130 127 128 133 131 123 126 126 117 116 134 150 147 133 121 167 185 175 160 151 153 156 152 149 150 146 140 155 168 174 176 177 180 183 183 180 179 180 183 177 166
11 11 10 6 2 1 360 360 3 7 7 8 12 18 28 82 92 86 93 98 102 116 121 122 126 124 115 107 101 94 92 97 107 113 106 94 93 119 146 144 137 144 151 144 135 135 133 124 141 166 174 175 181 188 193 192 189 185 183 180 170 162
13 13 12 6 1 360 1 5 11 14 13 14 22 35 59 86 84 69 65 71 80 104 118 119 121 122 119 116 115 109 99 91 88 89 91 93 95 95 104 113 114 122 136 133 120 113 117 122 137 154 161 165 174 187 201 209 207 198 188 176 167 164
14 12 9 4 1 1 3 9 16 19 18 18 26 43 62 73 73 64 58 58 67 82 95 101 105 109 112 114 116 117 112 102 89 82 81 85 91 94 94 98 101 103 111 119 118 116 117 120 131 144 154 168 186 206 230 238 234 219 198 181 174 169
11 10 8 5 4 4 8 14 19 22 22 24 29 44 59 67 70 67 62 61 68 75 77 78 83 89 94 96 98 101 104 103 98 91 85 84 88 92 92 91 95 100 106 112 120 126 126 127 136 147 154 177 221 238 244 242 234 221 200 184 177 167
7 9 6 4 4 6 12 18 19 21 25 28 31 40 52 60 67 70 70 71 75 76 74 75 79 82 85 89 92 95 97 100 106 113 111 99 91 88 86 85 88 96 106 111 113 119 126 130 132 128 118 108 104 124 204 216 212 206 192 181 171 159
7 7 4 4 4 6 11 16 17 20 25 31 36 42 49 54 61 65 67 71 75 75 75 77 81 84 84 85 87 90 92 98 108 115 116 115 109 97 86 86 88 91 100 106 104 104 113 119 116 113 114 115 116 124 155 184 195 227 24 61 104 122
8 7 4 3 4 6 8 13 17 20 24 31 38 45 49 54 58 59 58 59 63 68 72 75 78 82 85 87 89 93 96 99 105 109 110 113 115 112 103 98 97 99 105 110 108 105 104 100 101 110 120 124 131 145 155 156 139 46 24 26 36 59